Regional Weather Roundup
Issued by NWS

Home | Current Version | Previous Version | Text Only | Print | Product List | Glossary On
Versions: 1 2 3 4 5 6 7 8 9 10 11 12 13 14 15 16 17 18 19 20 21 22 23 24 25 26 27 28 29 30 31 32 33 34 35 36 37 38 39 40 41 42 43 44 45 46 47 48 49 50
000
ASUS44 KLIX 280610
RWRLA
LOUISIANA WEATHER ROUNDUP
NATIONAL WEATHER SERVICE NEW ORLEANS LA
1200 AM CST SAT FEB 28 2015

NOTE: "FAIR" INDICATES FEW OR NO CLOUDS BELOW 12,000 FEET WITH NO
      SIGNIFICANT WEATHER AND/OR OBSTRUCTIONS TO VISIBILITY.
      SKY/WX - SKY CONDITION AND SIGNIFICANT WEATHER.
      TMP - AIR TEMPERATURE.    DP   - DEWPOINT TEMPERATURE.
      RH  - RELATIVE HUMIDITY.  PRES - PRESSURE.
      HX  - HEAT INDEX.         WCI  - WIND CHILL INDEX.

*  THESE STATIONS ARE NOT NWS OR FAA STATIONS AND ARE NOT UNDER
   NWS QUALITY CONTROL.

LAZ040-048-061>063-065-066-069-280700-
SOUTHEAST LOUISIANA

CITY           SKY/WX    TMP DP  RH WIND       PRES   REMARKS
N.O. AUDUBON     N/A     47  35  65 MISG        N/A
6HR MIN TEMP:  46; 6HR MAX TEMP:  50;

N.O. INTL ARPT PTCLDY    46  32  58 NE14      30.40S
6HR MIN TEMP:  46; 6HR MAX TEMP:  49;

N.O. LAKEFRONT CLEAR     48  33  56 NE17      30.40S
6HR MIN TEMP:  48; 6HR MAX TEMP:  53;

SLIDELL        CLEAR     36  31  82 N3        30.40S
6HR MIN TEMP:  36; 6HR MAX TEMP:  48;

BATON ROUGE    CLEAR     37  29  72 N6        30.43S WCI  32
6HR MIN TEMP:  37; 6HR MAX TEMP:  49;

BOOTHVILLE     MOCLDY    50  40  68 NE12G17   30.36F
6HR MIN TEMP:  49; 6HR MAX TEMP:  51;

BELLE CHASSE   CLEAR     45  31  58 NE7       30.38F
6HR MIN TEMP:  45; 6HR MAX TEMP:  51;

BOGALUSA*        N/A     37  30  78 N5        30.43S WCI  33
6HR MIN TEMP:  36; 6HR MAX TEMP:  46;

GALLIANO*      PTCLDY    42  37  81 N6        30.38F
6HR MIN TEMP:  41; 6HR MAX TEMP:  51;

NEW ROADS*     FAIR      34  28  77 N7        30.44F WCI  28
6HR MIN TEMP:  34; 6HR MAX TEMP:  46;

GONZALES*      FAIR      41  32  71 N6        30.41F
6HR MIN TEMP:  40; 6HR MAX TEMP:  51;

HAMMOND*       CLEAR     37  30  75 N5        30.43S WCI  34
HOUMA*         CLEAR     38  34  82 N7        30.39F WCI  33
6HR MIN TEMP:  38; 6HR MAX TEMP:  48;

PORT FOURCHON* PTCLDY    46  37  71 N9        30.39F

$$

LAZ041-044-053-054-280700-
SOUTHWEST LOUISIANA

CITY           SKY/WX    TMP DP  RH WIND       PRES   REMARKS
LAKE CHARLES   CLEAR     37  28  70 NE18      30.39F WCI  27
6HR MIN TEMP:  37; 6HR MAX TEMP:  48;

LAFAYETTE      CLEAR     35  29  78 N9        30.43F WCI  28
6HR MIN TEMP:  35; 6HR MAX TEMP:  49;

PATTERSON      PTCLDY    41  32  70 NE6       30.41F
6HR MIN TEMP:  41; 6HR MAX TEMP:  50;

SALT POINT       N/A     41  34  76 CALM      30.39F
6HR MIN TEMP:  41; 6HR MAX TEMP:  51;

NEW IBERIA     CLEAR     37  30  75 N12       30.42F WCI  29
6HR MIN TEMP:  37; 6HR MAX TEMP:  50;

CHENAULT AIRPK CLEAR     35  28  75 NE13      30.41F WCI  27
6HR MIN TEMP:  35; 6HR MAX TEMP:  47;


$$

LAZ027-028-280700-
CENTRAL LOUISIANA

CITY           SKY/WX    TMP DP  RH WIND       PRES   REMARKS
FORT POLK      CLEAR     32  25  75 E6        30.41F WCI  27
6HR MIN TEMP:  32; 6HR MAX TEMP:  43;

ALEXANDRIA INT MOCLDY    34  26  72 NE5       30.44F WCI  30
6HR MIN TEMP:  33; 6HR MAX TEMP:  40;

ALEXANDRIA     PTCLDY    35  25  66 NE3       30.45F
6HR MIN TEMP:  35; 6HR MAX TEMP:  41;


$$

LAZ001-002-280700-
NORTHWEST LOUISIANA

CITY           SKY/WX    TMP DP  RH WIND       PRES   REMARKS
SHREVEPORT     CLOUDY    33  22  63 E9        30.46S WCI  25
6HR MIN TEMP:  33; 6HR MAX TEMP:  34;

BARKSDALE AFB  CLOUDY    32  21  65 E5        30.47S WCI  27
6HR MIN TEMP:  32; 6HR MAX TEMP:  33;

DTN SHREVEPORT CLOUDY    32  20  61 NE8       30.47F WCI  25
6HR MIN TEMP:  32; 6HR MAX TEMP:  33;


$$

LAZ014-016-280700-
NORTHEAST LOUISIANA

CITY           SKY/WX    TMP DP  RH WIND       PRES   REMARKS
MONROE         CLOUDY    32  25  75 E5        30.50F WCI  27
6HR MIN TEMP:  31; 6HR MAX TEMP:  33;

TALLULAH       CLOUDY    34  25  69 NE6       30.47F WCI  29
6HR MIN TEMP:  33; 6HR MAX TEMP:  35;


$$




USA.gov is the U.S. government's official web portal to all federal, state and local government web resources and services.